Weather reports worldwide

Advertisment
Stötten, Germany (10836): temperature & dewpoint: 24.10.2020 11:00:00 - 30.10.2020 11:00:00 (CET)Stötten, Germany (10836): temperature 5cm & temperature -5cm: 24.10.2020 11:00:00 - 30.10.2020 11:00:00 (CET)Stötten, Germany (10836): temperature -20cm & temperature -100cm: 24.10.2020 11:00:00 - 30.10.2020 11:00:00 (CET)Stötten, Germany (10836): wind speed & gusts: 24.10.2020 11:00:00 - 30.10.2020 11:00:00 (CET)Stötten, Germany (10836): wind direction: 24.10.2020 11:00:00 - 30.10.2020 11:00:00 (CET)Stötten, Germany (10836): reduced air pressure: 24.10.2020 11:00:00 - 30.10.2020 11:00:00 (CET)Stötten, Germany (10836): visibility: 24.10.2020 11:00:00 - 30.10.2020 11:00:00 (CET)Stötten, Germany (10836): sunshine duration: 24.10.2020 11:00:00 - 30.10.2020 11:00:00 (CET)Stötten, Germany (10836): precipitation: 24.10.2020 11:00:00 - 30.10.2020 11:00:00 (CET)
Date & Time tt [°C] td [°C] tt 5cm [°C] tt -5cm [°C] tt -20cm [°C] tt -100cm [°C] ff [km/h] ff [kn] fx [km/h] fx [kn] dd ppp [hPa] vv [km] sd [min] rr [mm]
30.10.2020 11:00:00 9,9 8,5 9,8 9,4 8,9 11,2 21 11 36 20 WSW 1025,1 35 0 0,0
30.10.2020 10:00:00 9,6 8,6 9,5 9,1 8,8 11,2 24 13 36 19 WSW 1025,0 6 0 0,4
30.10.2020 09:00:00 9,2 8,2 8,9 8,7 8,8 11,3 31 17 56 30 W 1024,8 2,4 0 0,1
30.10.2020 08:00:00 9,9 7,6 9,5 8,6 8,8 11,3 24 13 43 23 WNW 1023,8 71 0 0,0
30.10.2020 07:00:00 9,3 8,3 8,8 8,5 8,7 11,3 34 19 49 26 N 1023,3 70 0 0,1
30.10.2020 06:00:00 9,1 7,8 8,6 8,4 8,7 11,3 22 12 36 20 ENE 1023,3 4,2 0 0,0
30.10.2020 05:00:00 9,2 7,7 8,9 8,4 8,7 11,3 25 13 44 24 ENE 1023,1 42 0 0,0
30.10.2020 04:00:00 9,3 7,8 8,6 8,3 8,7 11,3 28 15 45 24 ENE 1022,6 7 0 0,0
30.10.2020 03:00:00 9,0 7,8 8,7 8,2 8,7 11,3 30 16 51 27 ESE 1022,9 17 0 0,3
30.10.2020 02:00:00 8,6 7,7 8,2 8,0 8,7 11,3 24 13 37 20 SSE 1023,4 4,9 0 0,4
30.10.2020 01:00:00 7,9 7,4 7,8 7,8 8,7 11,3 21 11 31 17 SSE 1023,4 7 0 1,2
30.10.2020 00:00:00 7,5 7,0 7,3 7,7 8,8 11,3 15 8 35 19 SSE 1023,8 21 0 0,6
29.10.2020 23:00:00 7,1 6,7 7,0 7,6 8,8 11,3 16 9 29 16 ESE 1024,1 5 0 1,0
29.10.2020 22:00:00 7,2 6,2 6,7 7,6 8,8 11,3 18 10 33 18 SE 1024,3 21 0 0,6
29.10.2020 21:00:00 7,4 6,4 7,0 7,7 8,9 11,3 24 13 35 19 SSE 1024,3 14 0 0,5
29.10.2020 20:00:00 7,5 5,7 6,8 7,7 8,9 11,3 24 13 44 24 SSE 1024,0 23 0 0,1
29.10.2020 19:00:00 7,6 5,5 6,9 7,9 8,9 11,3 32 17 44 24 S 1023,6 47 0 0,2
29.10.2020 18:00:00 7,6 6,1 7,0 8,2 8,9 11,3 29 16 43 23 SW 1023,2 26 0 0,3
29.10.2020 17:00:00 8,2 6,3 7,5 8,5 8,9 11,3 28 15 50 27 WNW 1022,4 33 0 0,0
29.10.2020 16:00:00 8,3 6,2 8,0 8,8 8,9 11,3 30 16 55 30 NW 1021,9 44 0 0,0
29.10.2020 15:00:00 8,5 6,5 8,4 9,1 8,8 11,3 35 19 47 26 ENE 1021,3 50 0 0,1
29.10.2020 14:00:00 7,6 6,2 7,5 8,8 8,7 11,3 24 13 45 25 ENE 1021,8 26 0 0,2
29.10.2020 13:00:00 7,6 5,7 7,2 8,7 8,7 11,4 33 18 49 26 E 1021,7 16 0 0,0
29.10.2020 12:00:00 7,7 5,9 8,0 9,1 8,6 11,4 36 20 53 29 ESE 1021,5 69 6 0,0
29.10.2020 11:00:00 8,1 5,7 9,1 9,2 8,6 11,4 37 20 63 34 SW 1020,6 50 40 0,0
29.10.2020 10:00:00 7,4 6,7 8,2 7,6 8,6 11,4 37 20 56 31 SW 1020,1 75 6 0,9
29.10.2020 09:00:00 5,8 5,3 6,0 7,4 8,6 11,4 29 16 72 39 WSW 1020,1 10 0 1,9
29.10.2020 08:00:00 7,1 6,1 6,8 7,4 8,7 11,4 35 19 49 26 W 1018,4 11 0 1,0
29.10.2020 07:00:00 7,4 5,7 6,6 7,5 8,7 11,4 36 19 60 33 WSW 1017,3 23 0 1,3
29.10.2020 06:00:00 8,3 5,8 7,1 7,6 8,7 11,4 33 18 45 25 WSW 1016,7 20 0 0,5
29.10.2020 05:00:00 8,5 5,9 7,5 7,7 8,7 11,4 32 17 50 27 W 1016,2 57 0 0,1
29.10.2020 04:00:00 8,1 6,7 7,4 7,7 8,7 11,4 29 15 45 25 WSW 1016,2 30 0 0,2
29.10.2020 03:00:00 8,2 6,3 7,9 7,6 8,8 11,4 34 18 43 23 SSW 1015,8 42 0 0,0
29.10.2020 02:00:00 8,1 6,0 7,7 7,6 8,8 11,4 23 12 32 18 SSW 1016,4 51 0 0,0
29.10.2020 01:00:00 8,3 5,9 7,8 7,7 8,8 11,4 22 12 41 22 SSW 1016,8 49 0 0,0
29.10.2020 00:00:00 8,1 6,3 7,3 7,8 8,9 11,4 23 13 40 21 SSW 1016,8 58 0 0,0
28.10.2020 23:00:00 8,5 6,4 8,0 7,8 8,9 11,4 23 13 34 18 SSW 1016,3 52 0 0,0
28.10.2020 22:00:00 8,2 6,7 7,8 7,7 9,0 11,4 21 12 31 17 SSW 1016,9 38 0 0,0
28.10.2020 21:00:00 8,5 6,9 7,9 7,7 9,0 11,4 24 13 33 18 SSW 1016,9 40 0 0,0
28.10.2020 20:00:00 8,4 6,7 7,7 7,7 9,1 11,4 24 13 34 18 SSW 1017,0 48 0 0,0
28.10.2020 19:00:00 8,2 5,9 7,0 7,7 9,1 11,4 22 12 33 18 SSW 1017,0 55 0 0,0
28.10.2020 18:00:00 8,2 4,3 6,5 8,4 9,1 11,4 22 12 35 19 WSW 1017,0 65 0 0,0
28.10.2020 17:00:00 9,0 6,4 8,2 9,8 9,0 11,5 18 10 29 16 W 1016,4 66 31 0,0
28.10.2020 16:00:00 9,3 7,6 9,5 10,2 8,9 11,5 19 11 39 21 W 1015,9 62 7 0,0
28.10.2020 15:00:00 9,8 8,2 10,3 10,9 8,6 11,5 16 9 26 14 WNW 1015,3 75 0 0,0
28.10.2020 14:00:00 9,9 7,9 9,8 11,6 8,4 11,5 19 11 29 15 WSW 1015,2 58 16 0,0
28.10.2020 13:00:00 10,7 8,6 12,8 10,7 8,2 11,5 14 8 35 19 SSW 1014,9 58 5 0,0
28.10.2020 12:00:00 10,6 7,4 10,9 10,6 8,0 11,5 28 15 42 23 WSW 1015,0 75 6 0,0
28.10.2020 11:00:00 10,5 7,7 12,2 9,3 7,9 11,5 24 13 34 18 SW 1014,7 74 5 0,0
28.10.2020 10:00:00 8,8 7,6 8,9 8,0 7,8 11,5 20 11 29 15 SW 1014,9 12 1 0,0
28.10.2020 09:00:00 7,8 6,7 8,3 7,1 7,8 11,5 20 11 29 16 SSW 1014,2 55 0 0,0
28.10.2020 08:00:00 7,2 6,1 6,8 6,6 7,8 11,5 18 10 29 15 SSW 1013,7 36 0 1,3
28.10.2020 07:00:00 7,0 5,8 6,4 6,4 7,7 11,5 15 8 27 15 SSW 1013,2 18 0 0,8
28.10.2020 06:00:00 6,5 5,1 6,2 6,2 7,7 11,5 14 8 27 15 SSW 1013,2 46 0 0,0
28.10.2020 05:00:00 6,0 5,2 5,7 5,9 7,8 11,5 12 6 28 15 SSW 1013,2 48 0 0,8
28.10.2020 04:00:00 5,6 4,1 5,1 5,6 7,8 11,5 10 5 23 13 S 1013,3 6 0 0,1
28.10.2020 03:00:00 5,3 3,9 4,8 5,4 7,9 11,5 12 6 31 17 S 1013,5 52 0 0,3
28.10.2020 02:00:00 4,9 3,1 4,5 5,0 8,0 11,5 14 8 24 13 SSW 1013,8 20 0 0,0
28.10.2020 01:00:00 4,7 2,7 4,1 4,5 8,2 11,5 13 7 32 17 SSW 1013,9 46 0 0,0
28.10.2020 00:00:00 4,1 2,6 3,0 4,5 8,3 11,5 10 5 27 15 S 1014,3 38 0 0,0
27.10.2020 23:00:00 4,6 2,5 3,6 4,7 8,5 11,5 14 8 27 15 S 1014,3 48 0 0,0
27.10.2020 22:00:00 4,6 2,5 3,2 5,0 8,6 11,5 12 7 23 13 S 1014,4 61 0 0,0
27.10.2020 21:00:00 5,0 2,5 3,5 5,6 8,8 11,5 11 6 23 13 S 1014,3 67 0 0,0
27.10.2020 20:00:00 5,5 2,9 4,5 6,0 8,9 11,5 10 5 20 11 SSW 1014,0 54 0 0,0
27.10.2020 19:00:00 5,4 2,7 4,0 6,4 9,0 11,5 12 6 26 14 SSW 1014,0 57 0 0,0
27.10.2020 18:00:00 5,9 2,8 4,7 7,2 9,0 11,5 10 5 26 14 SSW 1013,7 58 0 0,0
27.10.2020 17:00:00 6,9 2,5 5,8 8,7 8,9 11,5 16 9 28 15 SSW 1013,3 62 8 0,0
27.10.2020 16:00:00 7,7 2,4 7,2 9,5 8,8 11,5 23 12 33 18 SSW 1012,8 75 0 0,0
27.10.2020 15:00:00 8,0 3,3 8,4 10,2 8,5 11,5 18 10 24 13 SW 1012,8 75 0 0,0
27.10.2020 14:00:00 7,9 3,7 8,4 11,8 8,2 11,5 14 7 28 15 SSW 1012,9 57 28 0,0
27.10.2020 13:00:00 7,5 3,2 7,7 12,2 8,0 11,5 21 11 30 16 SW 1013,0 54 36 0,0
27.10.2020 12:00:00 9,1 5,3 12,7 10,8 7,8 11,5 18 10 29 16 SW 1012,4 74 30 0,0
27.10.2020 11:00:00 7,4 3,9 9,8 8,7 7,8 11,5 16 8 22 12 SSW 1013,0 44 60 0,0
27.10.2020 10:00:00 4,6 3,0 5,2 5,5 7,9 11,5 8 4 13 7 S 1013,4 22 37 0,0
27.10.2020 09:00:00 3,3 2,5 2,5 4,6 7,9 11,5 10 5 16 9 SSW 1013,5 12 2 0,0
27.10.2020 08:00:00 3,8 2,6 2,9 4,6 8,0 11,5 11 6 15 8 SSW 1012,9 33 0 0,0
27.10.2020 07:00:00 3,1 2,5 2,5 4,7 8,1 11,5 8 4 17 9 SSW 1012,7 11 0 0,0
27.10.2020 06:00:00 3,3 2,4 2,7 4,8 8,2 11,5 8 4 15 8 S 1012,2 13 0 0,0
27.10.2020 05:00:00 3,5 2,6 2,6 5,0 8,3 11,5 12 6 17 9 SSW 1011,6 13 0 0,0
27.10.2020 04:00:00 3,5 2,8 3,1 5,2 8,4 11,5 9 5 17 9 SSW 1011,5 10 0 0,0
27.10.2020 03:00:00 3,7 2,8 3,5 5,4 8,5 11,5 12 6 19 11 SSW 1011,5 14 0 0,0
27.10.2020 02:00:00 3,4 2,7 3,3 5,3 8,7 11,5 8 5 18 10 SSW 1011,8 10 0 0,0
27.10.2020 01:00:00 3,2 2,6 2,8 5,4 8,8 11,5 9 5 18 10 S 1011,9 10 0 0,0
27.10.2020 00:00:00 3,4 2,7 3,0 5,6 8,9 11,5 8 4 16 9 S 1011,8 9 0 0,0
26.10.2020 23:00:00 3,5 2,9 3,2 5,9 9,0 11,5 9 5 17 9 S 1011,8 10 0 0,0
26.10.2020 22:00:00 3,8 3,1 3,4 6,3 9,1 11,5 9 5 26 14 S 1011,5 14 0 0,0
26.10.2020 21:00:00 4,0 3,3 3,8 6,7 9,2 11,5 22 12 33 18 SSW 1011,2 11 0 0,0
26.10.2020 20:00:00 4,3 3,7 4,4 6,9 9,2 11,5 20 11 29 15 SSW 1010,6 11 0 0,0
26.10.2020 19:00:00 4,8 4,0 4,8 7,2 9,3 11,5 16 8 24 13 SSW 1010,3 37 0 0,0
26.10.2020 18:00:00 5,3 4,6 5,2 7,4 9,3 11,5 14 7 20 11 SSW 1009,8 36 0 0,0
26.10.2020 17:00:00 5,5 4,9 5,5 7,6 9,4 11,5 13 7 24 13 SSW 1009,2 33 0 0,4
26.10.2020 16:00:00 5,6 4,8 5,5 7,7 9,4 11,5 14 8 23 12 SW 1008,9 28 0 0,8
26.10.2020 15:00:00 5,7 5,1 5,7 7,9 9,5 11,5 12 7 23 13 SSW 1008,5 43 0 0,5
26.10.2020 14:00:00 5,6 5,2 5,8 7,8 9,5 11,5 16 8 29 15 W 1008,3 14 0 1,3
26.10.2020 13:00:00 5,6 5,1 5,8 8,0 9,6 11,5 22 12 36 20 W 1008,3 19 0 1,0
26.10.2020 12:00:00 5,8 5,5 6,1 8,1 9,6 11,5 26 14 42 23 W 1007,5 0,7 0 1,0
26.10.2020 11:00:00 6,0 5,6 6,3 8,2 9,7 11,5 25 14 40 22 W 1007,2 21 0 1,4
26.10.2020 10:00:00 6,0 5,7 6,3 8,1 9,8 11,5 31 17 48 26 W 1007,2 11 0 1,2
26.10.2020 09:00:00 6,8 6,6 7,0 8,3 9,8 11,5 24 13 43 23 WNW 1006,1 0,3 0 1,9
26.10.2020 08:00:00 7,1 6,8 7,2 8,3 9,8 11,5 26 14 38 20 WNW 1006,0 0,2 0 0,7
26.10.2020 07:00:00 7,5 7,0 7,6 8,2 9,9 11,5 17 9 27 15 WNW 1004,3 0,2 0 0,0
26.10.2020 06:00:00 7,7 7,3 7,2 8,0 10,0 11,5 14 8 22 12 NNW 1003,8 28 0 0,0
26.10.2020 05:00:00 7,4 7,0 7,1 8,2 10,1 11,5 12 7 16 9 NW 1004,4 7 0 0,0
26.10.2020 04:00:00 7,5 7,0 7,4 8,2 10,2 11,5 14 8 23 13 W 1005,0 4,4 0 0,0
26.10.2020 03:00:00 8,3 5,5 7,6 8,2 10,3 11,5 14 8 17 9 W 1004,7 64 0 0,0
26.10.2020 02:00:00 9,3 5,1 7,5 8,3 10,4 11,5 7 4 19 10 SW 1004,6 62 0 0,0
26.10.2020 01:00:00 9,5 4,6 7,9 8,4 10,5 11,5 8 4 16 9 S 1005,0 67 0 0,0
26.10.2020 00:00:00 10,9 3,6 9,4 8,8 10,5 11,5 9 5 19 10 S 1005,5 71 0 0,0
25.10.2020 23:00:00 10,9 4,2 10,0 9,0 10,6 11,5 10 6 21 11 S 1006,2 67 0 0,0
25.10.2020 22:00:00 11,0 5,1 10,1 9,2 10,8 11,5 10 5 18 10 S 1007,3 58 0 0,0
25.10.2020 21:00:00 11,2 6,1 10,1 9,3 10,9 11,5 11 6 19 10 SSW 1007,3 69 0 0,0
25.10.2020 20:00:00 10,6 6,8 9,5 9,5 11,0 11,5 10 5 19 10 SSW 1008,0 57 0 0,0
25.10.2020 19:00:00 10,9 6,8 9,5 10,0 11,0 11,5 11 6 18 10 S 1007,9 54 0 0,0
25.10.2020 18:00:00 10,9 6,7 9,4 11,1 10,9 11,5 9 5 20 11 S 1007,5 54 0 0,0
25.10.2020 17:00:00 11,8 7,3 10,6 12,5 10,8 11,5 9 5 16 9 S 1007,1 59 0 0,0
25.10.2020 16:00:00 13,8 7,0 13,0 14,9 10,5 11,5 8 4 15 8 S 1006,9 60 58 0,0
25.10.2020 15:00:00 15,5 6,2 16,3 15,4 10,1 11,5 10 6 26 14 W 1007,0 75 60 0,0
25.10.2020 14:00:00 15,8 6,4 16,8 15,7 9,8 11,5 12 7 30 16 SSW 1007,2 75 60 0,0
25.10.2020 13:00:00 15,3 6,0 16,5 14,7 9,5 11,5 16 8 26 14 SSW 1008,0 75 52 0,0
25.10.2020 12:00:00 13,9 5,7 15,3 12,6 9,3 11,5 11 6 33 18 SSW 1009,2 75 33 0,0
25.10.2020 11:00:00 11,4 7,2 12,6 10,8 9,2 11,4 16 9 27 15 SSW 1010,2 59 60 0,0
25.10.2020 10:00:00 10,3 6,8 10,6 8,9 9,3 11,4 13 7 29 16 S 1011,1 64 58 0,0
25.10.2020 09:00:00 9,1 6,1 8,0 7,3 9,3 11,4 10 5 21 11 S 1012,1 59 57 0,0
25.10.2020 08:00:00 7,5 5,7 6,1 6,3 9,5 11,4 10 5 22 12 S 1012,7 45 28 0,0
25.10.2020 07:00:00 6,8 5,6 5,4 6,2 9,6 11,4 15 8 24 13 S 1013,3 30 0 0,0
25.10.2020 06:00:00 6,4 5,6 5,2 6,4 9,7 11,4 13 7 26 14 S 1013,6 14 0 0,0
25.10.2020 05:00:00 7,2 6,2 5,9 6,6 9,9 11,4 13 7 21 11 S 1013,8 21 0 0,0
25.10.2020 04:00:00 8,0 6,7 6,5 6,9 10,0 11,4 13 7 21 11 S 1014,1 35 0 0,0
25.10.2020 03:00:00 8,2 6,7 6,7 7,0 10,1 11,4 14 7 23 12 S 1014,3 19 0 0,0
25.10.2020 02:00:00 8,4 6,5 6,9 7,1 10,3 11,4 13 7 22 12 S 1015,0 25 0 0,0
25.10.2020 01:00:00 - - - - - - - - - - - - - - -
25.10.2020 00:00:00 8,5 6,7 7,1 7,3 10,7 11,4 12 7 23 13 SSW 1016,1 18 0 0,0
24.10.2020 23:00:00 8,4 6,3 6,7 7,4 10,9 11,4 15 8 23 12 SSW 1016,9 20 0 0,0
24.10.2020 22:00:00 8,9 6,3 6,6 7,7 11,1 11,4 14 8 22 12 SSW 1017,3 52 0 0,0
24.10.2020 21:00:00 9,3 6,5 6,8 8,1 11,3 11,4 13 7 18 10 SSW 1017,5 75 0 0,0
24.10.2020 20:00:00 8,6 6,3 5,6 8,6 11,4 11,4 11 6 13 7 SSW 1017,9 66 0 0,0
24.10.2020 19:00:00 8,8 6,7 4,2 9,3 11,6 11,4 7 4 12 6 SW 1018,3 68 0 0,0
24.10.2020 18:00:00 9,4 6,3 6,9 10,5 11,6 11,4 11 6 19 11 WSW 1017,9 75 0 0,0
24.10.2020 17:00:00 11,0 6,9 9,4 12,1 11,5 11,4 14 7 21 11 W 1017,4 75 23 0,0
24.10.2020 16:00:00 12,5 6,5 12,7 14,1 11,4 11,4 19 10 27 15 W 1017,5 69 58 0,0
24.10.2020 15:00:00 12,6 7,3 13,6 14,5 11,3 11,4 16 9 27 14 W 1017,5 75 47 0,0
24.10.2020 14:00:00 12,6 7,4 13,5 13,9 11,1 11,4 18 10 33 18 W 1018,1 75 24 0,0
24.10.2020 13:00:00 11,6 7,5 12,1 13,7 11,0 11,4 19 11 35 19 W 1018,8 75 22 0,0
24.10.2020 12:00:00 11,8 8,5 13,2 12,8 10,9 11,4 11 6 25 14 WSW 1019,2 63 2 0,0
24.10.2020 11:00:00 10,6 8,6 12,3 11,9 10,9 11,4 16 9 29 16 W 1019,8 52 1 0,0

tt = temperature
td = dewpoint
tt 5cm = temperature 5cm
tt -5cm = temperature -5cm
tt -20cm = temperature -20cm
tt -100cm = temperature -100cm
ff = wind speed
fx = gusts
dd = wind direction
ppp = reduced air pressure
vv = visibility
sd = sunshine duration
rr = precipitation

Next stations